Abilene, TX

8:20 AM CDT on July 18, 2019 (GMT -0500)
Abilene Regional

Weather History for KABI - May, 2019

Change the Weather History Date:

Saturday, May 18, 2019

  Actual Average Record
Temperature  
Mean Temperature 75 °F 74 °F  
Max Temperature 87 °F 85 °F 99 °F (1927)
Min Temperature 62 °F 62 °F 47 °F (1968)
Degree Days  
Heating Degree Days 0 0  
Month to date heating degree days 33 13  
Since 1 July heating degree days 2551 2555  
Cooling Degree Days 10 9  
Month to date cooling degree days 91 129  
Year to date cooling degree days 253 262  
Growing Degree Days 25 (Base 50)    
Moisture  
Dew Point 63 °F    
Average Humidity 55    
Maximum Humidity 87    
Minimum Humidity 23    
Precipitation  
Precipitation 0.21 in 0.10 in 3.53 in (1942)
Month to date precipitation 4.04 1.62  
Year to date precipitation 11.16 7.38  
Sea Level Pressure  
Sea Level Pressure 29.63 in    
Wind  
Wind Speed 13 mph (SSW)    
Max Wind Speed 32 mph    
Max Gust Speed 42 mph    
Visibility 9 miles    
Events Rain , Thunderstorm    
T = Trace of Precipitation, MM = Missing Value Source: NWS Daily Summary

Daily Weather History Graph

Daily Weather History Graph

Search for Another Location

Airport or City:

Astronomy

May. 18, 2019 Rise Set
Actual Time 6:38 AM CDT 8:31 PM CDT
Civil Twilight 6:11 AM CDT 8:59 PM CDT
Nautical Twilight 5:38 AM CDT 9:32 PM CDT
Astronomical Twilight 5:03 AM CDT 10:07 PM CDT
Moon 8:32 PM CDT 6:41 AM CDT
Length of Visible Light 14h 47m
Length of Day
13h 53m
Full, 100% of the Moon is Illuminated
May 18
Full
May 18
Full
May 26
Last Quarter
Jun 3
New
Jun 10
First Quarter

Hourly Weather History & Observations

Time (CDT) Temp. Heat Index Dew Point Humidity Pressure Visibility Wind Dir Wind Speed Gust Speed Precip Events Conditions
12:52 AM 75.0 °F - 70.0 °F 84% 29.62 in 9.0 mi South 25.3 mph 33.4 mph N/A   Clear
1:52 AM 75.0 °F - 70.0 °F 84% 29.62 in 9.0 mi South 17.3 mph 27.6 mph N/A   Clear
2:29 AM 73.9 °F - 70.0 °F 87% 29.70 in 10.0 mi SSE 20.7 mph 32.2 mph 0.00 in Rain , Thunderstorm Light Rain
2:52 AM 73.9 °F - 70.0 °F 87% 29.62 in 9.0 mi SSE 16.1 mph 27.6 mph 0.00 in   Clear
3:52 AM 73.9 °F - 70.0 °F 87% 29.59 in 9.0 mi South 18.4 mph - N/A   Clear
4:52 AM 73.9 °F - 70.0 °F 87% 29.62 in 9.0 mi South 15.0 mph - N/A   Partly Cloudy
5:16 AM 73.0 °F - 70.0 °F 90% 29.66 in 7.0 mi SE 16.1 mph - 0.00 in Rain , Thunderstorm Light Thunderstorms and Rain
5:47 AM 73.4 °F - 69.8 °F 88% 29.65 in 8.0 mi ESE 13.8 mph 21.9 mph 0.00 in Rain , Thunderstorm Light Thunderstorms and Rain
5:52 AM 73.0 °F - 70.0 °F 90% 29.55 in 8.0 mi ESE 21.9 mph 28.8 mph 0.00 in Rain , Thunderstorm Light Thunderstorms and Rain
6:09 AM 73.0 °F - 70.0 °F 90% 29.64 in 8.0 mi Calm Calm - 0.01 in Thunderstorm Thunderstorm
6:16 AM 73.0 °F - 70.0 °F 90% 29.63 in 8.0 mi Variable 3.5 mph - 0.01 in Rain , Thunderstorm Light Thunderstorms and Rain
6:30 AM 71.1 °F - 69.1 °F 93% 29.66 in 9.0 mi West 8.1 mph 21.9 mph 0.01 in Rain , Thunderstorm Light Rain
6:52 AM 73.0 °F - 70.0 °F 90% 29.59 in 8.0 mi South 10.4 mph 16.1 mph 0.01 in Thunderstorm Overcast
7:17 AM 73.0 °F - 70.0 °F 90% 29.70 in 7.0 mi SW 11.5 mph - N/A Thunderstorm Overcast
7:25 AM 73.0 °F - 70.0 °F 90% 29.70 in 7.0 mi WNW 8.1 mph - 0.00 in Rain Light Rain
7:35 AM 66.0 °F - 63.0 °F 90% 29.71 in 9.0 mi NNW 18.4 mph 27.6 mph 0.00 in Rain , Thunderstorm Light Rain
7:44 AM 64.0 °F - 63.0 °F 96% 29.69 in 10.0 mi NNW 21.9 mph 27.6 mph 0.00 in Rain Light Rain
7:52 AM 64.0 °F - 63.0 °F 96% 29.63 in 8.0 mi NE 11.5 mph 27.6 mph 0.00 in Rain , Thunderstorm Light Rain
8:02 AM 63.0 °F - 61.0 °F 93% 29.74 in 9.0 mi NW 10.4 mph 18.4 mph 0.01 in Rain , Thunderstorm Light Thunderstorms and Rain
8:16 AM 63.0 °F - 61.0 °F 93% 29.76 in 5.0 mi North 5.8 mph - 0.03 in Rain , Thunderstorm Rain
8:29 AM 63.0 °F - 61.0 °F 93% 29.74 in 7.0 mi Variable 3.5 mph - 0.04 in Rain , Thunderstorm Light Thunderstorms and Rain
8:42 AM 63.0 °F - 61.0 °F 93% 29.69 in 4.0 mi ENE 19.6 mph 24.2 mph 0.11 in Rain , Thunderstorm Thunderstorms and Rain
8:52 AM 63.0 °F - 62.1 °F 97% 29.55 in 4.0 mi East 23.0 mph - 0.17 in Rain , Thunderstorm Heavy Thunderstorms and Rain
8:59 AM 64.0 °F - 63.0 °F 96% 29.60 in 6.0 mi ESE 20.7 mph 31.1 mph 0.02 in Rain , Thunderstorm Light Thunderstorms and Rain
9:20 AM 64.9 °F - 61.0 °F 87% 29.59 in 10.0 mi SSE 18.4 mph 35.7 mph 0.03 in Thunderstorm Partly Cloudy
9:33 AM 64.9 °F - 60.1 °F 84% 29.59 in 10.0 mi South 8.1 mph - 0.03 in   Clear
9:52 AM 64.9 °F - 61.0 °F 87% 29.57 in 10.0 mi SSW 13.8 mph - 0.03 in   Clear
10:52 AM 64.0 °F - 61.0 °F 90% 29.60 in 10.0 mi SSW 15.0 mph - N/A   Clear
11:52 AM 70.0 °F - 64.9 °F 84% 29.62 in 10.0 mi SSW 11.5 mph - N/A   Partly Cloudy
12:52 PM 78.1 °F - 69.1 °F 74% 29.60 in 10.0 mi SW 15.0 mph - N/A   Clear
1:52 PM 81.0 °F 84.4 °F 70.0 °F 69% 29.59 in 10.0 mi SSW 12.7 mph - N/A   Clear
2:52 PM 86.0 °F 85.7 °F 60.1 °F 41% 29.58 in 10.0 mi West 13.8 mph - N/A   Clear
3:52 PM 86.0 °F - 50.0 °F 29% 29.57 in 10.0 mi SW 21.9 mph 29.9 mph N/A   Clear
4:52 PM 84.9 °F - 44.1 °F 24% 29.57 in 10.0 mi West 15.0 mph 25.3 mph N/A   Clear
5:52 PM 84.0 °F - 42.1 °F 23% 29.58 in 10.0 mi West 15.0 mph - N/A   Clear
6:52 PM 82.0 °F - 44.1 °F 26% 29.59 in 10.0 mi WSW 8.1 mph - N/A   Clear
7:52 PM 77.0 °F - 53.1 °F 43% 29.61 in 10.0 mi SSW 5.8 mph - N/A   Clear
8:52 PM 71.1 °F - 53.1 °F 53% 29.63 in 10.0 mi South 8.1 mph - N/A   Clear
9:52 PM 66.9 °F - 55.0 °F 66% 29.65 in 10.0 mi South 8.1 mph - N/A   Clear
10:52 PM 66.9 °F - 52.0 °F 59% 29.68 in 10.0 mi South 5.8 mph - N/A   Clear
11:52 PM 66.0 °F - 52.0 °F 60% 29.71 in 10.0 mi WSW 5.8 mph - N/A   Clear